Location: Cheching
(60.0667°N, 164.2167°W)
Time: 11:43:59
(UTC+00:00)

UNISAT 6 - Pass Details

Date: 17 January 2021
Orbit: 607 x 687 km, 97.7° (Epoch: 24 February)

Event Time Altitude Azimuth Distance (km) Brightness Sun altitude
Rises 16:44:18 0° 145° (SE) 2,865 ? -20.6°
Reaches altitude 10° 16:46:30 10° 140° (SE) 1,968 ? -20.3°
Maximum altitude 16:50:37 51° 65° (ENE) 787 ? -19.8°
Drops below altitude 10° 16:54:51 10° 350° (N) 2,009 ? -19.3°
Enters shadow 16:55:21 - 349° (N) 2,215 ? -19.2°
